Location: Go�ngahuizen
(53.0821°N, 5.8849°E)
Time: 16:30:04
(UTC+00:00)

CZ-4B DEB - Pass Details

Date: 09 April 2020
Orbit: 439 x 445 km, 97.3° (Epoch: 28 May)

Event Time Altitude Azimuth Distance (km) Brightness Sun altitude
Exits shadow 20:42:08 60° 144° (SE) 522 4.3 -18.5°
Maximum altitude 20:42:40 79° 74° (ENE) 466 4.3 -18.6°
Drops below altitude 10° 20:46:04 10° 349° (NNW) 1,591 8.0 -18.9°
Sets 20:48:07 0° 348° (NNW) 2,469 9.1 -19.1°
